Regional Weather Roundup
Issued by NWS

Home | Current Version | Previous Version | Text Only | Print | Product List | Glossary On
Versions: 1 2 3 4 5 6 7 8 9 10 11 12 13 14 15 16 17 18 19 20 21 22 23 24 25 26 27 28 29 30 31 32 33 34 35 36 37 38 39 40 41 42 43 44 45 46 47 48 49
000
ASUS43 KDMX 300507
RWRIA

WEATHER ROUNDUP FOR IOWA
NATIONAL WEATHER SERVICE DES MOINES IA
1200 AM CDT SUN AUG 30 2015

NOTE: "FAIR" INDICATES FEW OR NO CLOUDS BELOW 12,000 FEET WITH NO
SIGNIFICANT WEATHER AND/OR OBSTRUCTIONS TO VISIBILITY.

* - THESE STATIONS ARE NOT NWS STATIONS...THUS NOT UNDER NWS
QUALITY CONTROL.  THEY ALSO DO NOT REPORT WEATHER SUCH
AS PRECIPITATION OR FOG.

IAZ001>003-012>014-020>022-031>034-043>046-300600-
   NORTHWEST IOWA

CITY           SKY/WX    TMP DP  RH WIND       PRES   REMARKS
CARROLL *      CLOUDY    64  64 100 S7        30.05F
CHEROKEE *     CLOUDY    63  63 100 S9        30.04F
DENISON *      CLOUDY    64  63  94 S6        30.04F
LE MARS *      MOCLDY    63  61  94 S6        30.04S
ORANGE CITY *  MOCLDY    61  61 100 S8        30.03F
SHELDON *      CLOUDY    61  61 100 S8        30.01F FOG
SPENCER        FOG       62  60  93 S12       30.04F VSB 1/2
STORM LAKE *   CLOUDY    63  61  94 S6G12     30.06S
$$

IAZ055>058-069>071-079>083-090>094-300600-
   SOUTHWEST IOWA

CITY           SKY/WX    TMP DP  RH WIND       PRES   REMARKS
ATLANTIC *     CLOUDY    64  64 100 CALM      30.05F
AUDUBON *      CLOUDY    64  61  88 CALM      30.07S
CLARINDA *     CLEAR     61  61 100 CALM      30.07S
COUNCIL BLFS * CLOUDY    64  63  94 CALM      30.06S
CRESTON *      CLEAR     63  61  94 E5        30.07S FOG
HARLAN  *      CLOUDY    64  59  82 SE5       30.09F
LAMONI         FOG       65  63  93 CALM      30.06S VSB 1/4
RED OAK *      MOCLDY    64  64 100 CALM      30.05S
SHENANDOAH *   CLOUDY    64  63  94 CALM      30.05F
$$

IAZ047>049-059>061-072>074-084-300600-
   CENTRAL IOWA

CITY           SKY/WX    TMP DP  RH WIND       PRES   REMARKS
AMES           CLOUDY    65  63  93 CALM      30.05F
ANKENY *       FOG       63  63 100 CALM      30.04F VSB 1/4
CHARITON *     FOG       64  63  94 E5        30.06S VSB 1/4
DES MOINES     PTCLDY    66  62  87 CALM      30.04S
GRINNELL*      CLEAR     59  59 100 CALM      30.06S FOG
KNOXVILLE *    PTCLDY    63  61  94 CALM      30.04S FOG
MARSHALLTOWN   PTCLDY    63  61  93 CALM      30.04F
PELLA *        FOG       61  61 100 CALM      30.06S VSB 1
PERRY *        MOCLDY    64  63  94 CALM      30.05F
$$

IAZ004>006-015-016-023>025-035-036-300600-
   NORTH CENTRAL IOWA

CITY           SKY/WX    TMP DP  RH WIND       PRES   REMARKS
ALGONA *       FOG       59  57  94 S6        30.06S VSB 1
CLARION *      FOG       59  59 100 CALM      30.06R VSB 0
ESTHERVILLE    CLOUDY    60  60 100 S10       30.04S FOG
FORT DODGE *   CLOUDY    64  61  88 CALM      30.06S
MASON CITY     CLOUDY    62  61  96 CALM      30.07S
FOREST CITY *  FOG       57  57 100 CALM      30.06S VSB 1/2
IOWA FALLS *   CLOUDY    66  64  94 CALM      30.06F
$$

IAZ007>011-017>019-026>030-037>042-050>054-066-300600-
   NORTHEAST IOWA

CITY           SKY/WX    TMP DP  RH WIND       PRES   REMARKS
CEDAR RAPIDS   CLEAR     60  60 100 NW3       30.04S FOG
CHARLES CITY * CLOUDY    63  63 100 S5        30.07S
CLINTON *      CLOUDY    66  64  94 NE7       30.06S
DECORAH *      CLOUDY    63  63 100 CALM      30.06S
DUBUQUE        CLOUDY    64  62  93 NE5       30.06S
MONTICELLO *   FOG       61  61 100 CALM      30.05S VSB 3/4
OELWEIN *      CLEAR     61  61 100 NE3       30.06S
WATERLOO       CLEAR     61  59  93 CALM      30.04F
$$

IAZ064-065-067-068-078-300600-
   EAST CENTRAL IOWA

CITY           SKY/WX    TMP DP  RH WIND       PRES   REMARKS
DAVENPORT      CLOUDY    63  63 100 CALM      30.04F FOG
IOWA CITY      CLEAR     64  63  96 CALM      30.05R
MT. PLEASANT * FOG       66  63  88 CALM      30.03F VSB 1/4
MUSCATINE *    FOG       63  61  94 CALM      30.04S VSB<1/4
QUAD CITIES    FOG       62  61  96 CALM      30.03S VSB<1/4
$$

IAZ062-063-075>077-085>089-095>099-300600-
   SOUTHEAST IOWA

CITY           SKY/WX    TMP DP  RH WIND       PRES   REMARKS
BURLINGTON     CLEAR     67  67 100 CALM      30.02F FOG
FAIRFIELD *    FOG       63  61  94 CALM      30.04S VSB 0
FORT MADISON * FOG       66  66 100 CALM      30.03F VSB 0
KEOKUK *       PTCLDY    70  68  94 CALM      30.02S FOG
OSKALOOSA *    MOCLDY    61  61 100 N3        30.05F FOG
CENTERVILLE *  FOG       59  59 100 NW3       30.06F VSB 1
OTTUMWA        PTCLDY    62  62 100 N3        30.03S FOG
WASHINGTON *     N/A    N/A N/A N/A MISG        N/A
$$

ABBREVIATIONS USED IN REMARKS
   TC - TEMPERATURES IN CELSIUS
  WCI - WIND CHILL INDEX
   HX - HEAT INDEX
  VSB - VISIBILITY
$$



USA.gov is the U.S. government's official web portal to all federal, state and local government web resources and services.